MTN8129 TJSJ-TIST

Flight info

Callsign MTN8129
Flight time 0h 23m
Altitude 7000
Route SJU RTE2 STT
Aircraft C408/M-SDFGRY/S

Departure

Time 2026-04-25 18:48
Airport Luis Munoz Marin International Airport (TJSJ)

Arrival

Time 2026-04-25 19:11
Airport Cyril E. King Airport (TIST)
Time Latitude Longitude Altitude Speed Heading
2026-04-25 18:33 18.43721 -65.99435 15 ft 0 kts 90°
2026-04-25 18:43 18.43721 -65.99433 15 ft 0 kts 90°
2026-04-25 18:43 18.43721 -65.99438 15 ft 2 kts 90°
2026-04-25 18:44 18.43721 -65.99446 15 ft 2 kts 90°
2026-04-25 18:44 18.43721 -65.99458 15 ft 2 kts 90°
2026-04-25 18:44 18.43721 -65.99471 15 ft 2 kts 90°
2026-04-25 18:44 18.43719 -65.99472 15 ft 4 kts 123°
2026-04-25 18:45 18.43676 -65.99482 15 ft 7 kts 204°
2026-04-25 18:45 18.43611 -65.99516 15 ft 12 kts 206°
2026-04-25 18:45 18.43536 -65.99550 15 ft 12 kts 192°
2026-04-25 18:45 18.43469 -65.99523 16 ft 13 kts 118°
2026-04-25 18:46 18.43460 -65.99407 16 ft 19 kts 90°
2026-04-25 18:46 18.43461 -65.99251 15 ft 22 kts 90°
2026-04-25 18:46 18.43459 -65.99115 16 ft 8 kts 95°
2026-04-25 18:46 18.43420 -65.99071 16 ft 12 kts 164°
2026-04-25 18:47 18.43357 -65.99098 15 ft 12 kts 253°
2026-04-25 18:47 18.43351 -65.99261 15 ft 52 kts 270°
2026-04-25 18:47 18.43352 -65.99912 17 ft 119 kts 270°
2026-04-25 18:47 18.43367 -66.00894 181 ft 143 kts 271°
2026-04-25 18:48 18.43393 -66.01903 694 ft 132 kts 270°
2026-04-25 18:48 18.43165 -66.02718 1336 ft 109 kts 230°
2026-04-25 18:48 18.42523 -66.03158 1713 ft 115 kts 193°
2026-04-25 18:48 18.41762 -66.02936 2103 ft 124 kts 144°
2026-04-25 18:49 18.41084 -66.02193 2043 ft 161 kts 137°
2026-04-25 18:49 18.40297 -66.01316 2343 ft 152 kts 136°
2026-04-25 18:49 18.39637 -66.00557 2956 ft 138 kts 137°
2026-04-25 18:49 18.39001 -65.99815 3398 ft 135 kts 138°
2026-04-25 18:50 18.38405 -65.99065 3829 ft 139 kts 118°
2026-04-25 18:50 18.38519 -65.98040 4221 ft 151 kts 59°
2026-04-25 18:50 18.39115 -65.97113 4605 ft 155 kts 58°
2026-04-25 18:50 18.39742 -65.96157 4985 ft 162 kts 56°
2026-04-25 18:51 18.40393 -65.95155 5378 ft 169 kts 57°
2026-04-25 18:51 18.40772 -65.94435 5619 ft 170 kts 72°
2026-04-25 18:51 18.41225 -65.92815 6149 ft 174 kts 74°
2026-04-25 18:51 18.41627 -65.91600 6521 ft 177 kts 71°
2026-04-25 18:52 18.42060 -65.90378 6883 ft 179 kts 70°
2026-04-25 18:52 18.42522 -65.89104 7015 ft 196 kts 71°
2026-04-25 18:52 18.43020 -65.87709 7019 ft 210 kts 70°
2026-04-25 18:52 18.43551 -65.86241 7018 ft 217 kts 70°
2026-04-25 18:53 18.44092 -65.84744 7010 ft 220 kts 70°
2026-04-25 18:53 18.44632 -65.83247 7015 ft 222 kts 70°
2026-04-25 18:53 18.45179 -65.81725 7015 ft 220 kts 71°
2026-04-25 18:53 18.45711 -65.80243 7006 ft 213 kts 71°
2026-04-25 18:54 18.46057 -65.77235 6997 ft 205 kts 88°
2026-04-25 18:54 18.46164 -65.75740 6997 ft 204 kts 88°
2026-04-25 18:54 18.46263 -65.74251 7001 ft 204 kts 89°
2026-04-25 18:55 18.46359 -65.72763 7003 ft 204 kts 89°
2026-04-25 18:55 18.46456 -65.71265 7011 ft 206 kts 89°
2026-04-25 18:55 18.46555 -65.69751 7008 ft 207 kts 89°
2026-04-25 18:55 18.46654 -65.68243 7015 ft 207 kts 89°
2026-04-25 18:56 18.46751 -65.66734 7010 ft 206 kts 89°
2026-04-25 18:56 18.46849 -65.65231 7011 ft 205 kts 88°
2026-04-25 18:56 18.46946 -65.63738 7011 ft 204 kts 89°
2026-04-25 18:56 18.47043 -65.62242 7012 ft 205 kts 89°
2026-04-25 18:57 18.47139 -65.60746 7009 ft 204 kts 88°
2026-04-25 18:57 18.47235 -65.59257 7012 ft 204 kts 89°
2026-04-25 18:57 18.47332 -65.57768 6993 ft 204 kts 89°
2026-04-25 18:57 18.47395 -65.56780 6991 ft 204 kts 89°
2026-04-25 18:58 18.47524 -65.54785 6998 ft 204 kts 89°
2026-04-25 18:58 18.47715 -65.51809 6996 ft 204 kts 89°
2026-04-25 18:58 18.47811 -65.50318 6999 ft 204 kts 89°
2026-04-25 18:59 18.47882 -65.47336 6981 ft 201 kts 105°
2026-04-25 18:59 18.46527 -65.44911 6985 ft 190 kts 141°
2026-04-25 19:00 18.44620 -65.42975 6989 ft 190 kts 140°
2026-04-25 19:00 18.43669 -65.42006 6988 ft 190 kts 140°
2026-04-25 19:01 18.41758 -65.40065 6560 ft 193 kts 140°
2026-04-25 19:01 18.40826 -65.39114 6301 ft 185 kts 140°
2026-04-25 19:01 18.39890 -65.38160 6051 ft 190 kts 141°
2026-04-25 19:01 18.38946 -65.37202 5905 ft 189 kts 141°
2026-04-25 19:02 18.37027 -65.35254 5432 ft 191 kts 141°
2026-04-25 19:02 18.36078 -65.34287 5194 ft 189 kts 141°
2026-04-25 19:02 18.35137 -65.33330 5001 ft 185 kts 141°
2026-04-25 19:03 18.33940 -65.32112 4988 ft 176 kts 141°
2026-04-25 19:03 18.32638 -65.30427 4995 ft 186 kts 119°
2026-04-25 19:03 18.32316 -65.29065 4795 ft 198 kts 97°
2026-04-25 19:04 18.32449 -65.26194 4284 ft 195 kts 91°
2026-04-25 19:04 18.32430 -65.24767 4023 ft 195 kts 96°
2026-04-25 19:05 18.32489 -65.21902 3504 ft 196 kts 91°
2026-04-25 19:05 18.32633 -65.19081 2980 ft 189 kts 91°
2026-04-25 19:05 18.32702 -65.17710 2799 ft 184 kts 91°
2026-04-25 19:06 18.32772 -65.16389 2720 ft 181 kts 90°
2026-04-25 19:06 18.32901 -65.13828 2496 ft 161 kts 90°
2026-04-25 19:06 18.32954 -65.12697 2379 ft 148 kts 91°
2026-04-25 19:07 18.33058 -65.10724 2164 ft 123 kts 93°
2026-04-25 19:07 18.33096 -65.09850 2090 ft 115 kts 91°
2026-04-25 19:08 18.33183 -65.08090 1845 ft 126 kts 94°
2026-04-25 19:08 18.33227 -65.07158 1675 ft 128 kts 93°
2026-04-25 19:09 18.33360 -65.04571 1203 ft 115 kts 92°
2026-04-25 19:09 18.33389 -65.04009 1104 ft 113 kts 94°
2026-04-25 19:09 18.33484 -65.02077 755 ft 115 kts 94°
2026-04-25 19:10 18.33525 -65.01243 610 ft 112 kts 91°
2026-04-25 19:10 18.33566 -65.00418 466 ft 114 kts 92°
2026-04-25 19:10 18.33607 -64.99584 301 ft 111 kts 92°
2026-04-25 19:10 18.33662 -64.98785 184 ft 110 kts 91°
2026-04-25 19:11 18.33704 -64.97984 40 ft 106 kts 93°
2026-04-25 19:11 18.33715 -64.97272 22 ft 82 kts 90°
2026-04-25 19:11 18.33722 -64.96863 16 ft 49 kts 97°
2026-04-25 19:11 18.33745 -64.96657 13 ft 6 kts 79°
2026-04-25 19:12 18.33766 -64.96679 13 ft 12 kts 240°
2026-04-25 19:12 18.33705 -64.96688 13 ft 12 kts 185°
2026-04-25 19:12 18.33671 -64.96750 15 ft 13 kts 269°
2026-04-25 19:12 18.33665 -64.96871 16 ft 19 kts 267°
2026-04-25 19:13 18.33663 -64.96974 17 ft 15 kts 265°
2026-04-25 19:13 18.33650 -64.97105 19 ft 19 kts 268°
2026-04-25 19:13 18.33643 -64.97250 21 ft 19 kts 268°
2026-04-25 19:13 18.33634 -64.97383 22 ft 12 kts 253°
2026-04-25 19:14 18.33563 -64.97401 23 ft 14 kts 176°
2026-04-25 19:14 18.33530 -64.97399 21 ft 14 kts 176°
2026-04-25 19:14 18.33395 -64.97301 20 ft 18 kts 136°
2026-04-25 19:14 18.33344 -64.97243 20 ft 1 kts 130°
2026-04-25 19:15 18.33313 -64.97209 19 ft 11 kts 137°
2026-04-25 19:15 18.33230 -64.97159 19 ft 13 kts 152°
2026-04-25 19:15 18.33178 -64.97155 21 ft 3 kts 233°
2026-04-25 19:15 18.33177 -64.97161 20 ft 0 kts 271°